[[{"header":{"parameterUnit":"m.s-1","parameterCategory":1,"la1":30.2991,"la2":30.254,"lo1":-89.0895,"lo2":-89.0444,"dy":0.0017,"dx":0.0017,"nx":28,"ny":28,"refTime":"2023-08-07T21:00:00:Z","depth":0,"parameterNumber":2,"parameterNumberName":"U-component_of_WINDS"},"data":[0,0,0,0,0,0,0,0,0,0,0,0,0,0,0,0,0,0,0,0,0,0,0,0,0,0,0,0,0,0,0,0,0,0,0,0,0,0,0,0,0,0,0,0,0,0,0,0,0,0,0,0,0,0,0,0,0,0,4.0925,4.0926,0,4.0978,4.0979,4.0979,4.0924,4.0921,4.0919,4.0917,4.0977,4.098,4.0984,0,0,0,0,0,0,0,0,0,0,0,0,0,4.0782,4.0785,4.0925,4.0926,4.0926,4.0978,4.0979,4.0979,4.0924,4.0921,4.0919,4.0916,4.0975,4.098,4.0984,0,0,0,0,0,0,0,0,0,0,0,0,0,4.0841,4.0786,4.0925,4.0905,4.0903,4.0978,4.0979,4.0979,4.0924,4.0921,4.0918,4.0915,4.0974,4.0979,4.0984,4.1083,0,0,4.1001,4.1003,0,0,0,0,0,0,0,0,4.0838,4.0846,4.0907,4.0906,4.0905,4.0941,4.095,4.1014,4.0925,4.0917,4.0917,4.0913,4.0968,4.0973,4.099,4.1085,4.1088,4.1001,4.1005,4.1007,4.1009,0,0,0,0,0,0,0,4.0834,4.0844,4.0946,4.0908,4.0907,4.0895,4.09,4.0962,4.096,4.0917,4.0913,4.092,4.0966,4.0985,4.0991,4.1089,4.1001,4.1006,4.1009,4.1012,4.127,4.1274,0,0,0,0,0,0,4.0831,4.0841,4.0944,4.0948,4.0862,4.09,4.0906,4.0933,4.0959,4.096,4.0923,4.0917,4.0978,4.0985,4.0993,4.1111,4.1007,4.1012,4.1015,4.1267,4.1271,4.1275,0,0,0,0,0,0,4.0828,4.0841,4.0942,4.0893,4.0905,4.0906,4.0937,4.0935,4.0954,4.0963,4.0963,4.0942,4.0976,4.0986,4.1061,4.1113,4.1014,4.1019,4.1262,4.1268,4.1273,4.1348,0,0,0,0,0,0,4.0824,4.084,4.0876,4.0894,4.0908,4.1007,4.094,4.0939,4.0963,4.0956,4.0981,4.0982,4.0974,4.1053,4.1067,4.1118,4.1024,4.1258,4.1265,4.1271,4.1341,4.1355,4.1367,0,0,0,0,0,4.0819,4.0895,4.0878,4.0891,4.0952,4.101,4.1018,4.1005,4.0967,4.1004,4.1011,4.0981,4.1105,4.1062,4.1076,4.113,4.1254,4.1263,4.1271,4.1335,4.1352,4.1367,0,0,0,0,0,0,4.0884,4.0897,4.0878,4.0961,4.0985,4.1001,4.1047,4.1024,4.106,4.1053,4.1037,4.1043,4.1123,4.1134,4.1086,4.1228,4.1174,4.1185,4.1218,4.1234,4.1248,4.1243,4.1028,0,0,0,0,0,4.0907,4.0952,4.0962,4.1035,4.1048,4.1046,4.107,4.1058,4.1083,4.1093,4.1104,4.1131,4.1176,4.1206,4.1247,4.1342,4.1348,4.1387,4.14,4.1411,4.1422,4.1475,4.1493,4.1302,4.1302,4.1302,0,0,4.0957,4.097,4.0999,4.1048,4.1065,4.1113,4.1054,4.1107,4.1144,4.1102,4.1173,4.1183,4.1212,4.1298,4.1336,4.131,4.1476,4.1422,4.143,4.1435,4.1485,4.1503,4.1519,4.1307,4.1306,4.1305,0,0,4.1073,4.1086,4.1149,4.1167,4.1193,4.1192,4.1207,4.1227,4.1232,4.1303,4.1273,4.1318,4.1395,4.1417,4.1438,4.1565,4.1541,4.158,4.1649,4.1702,4.1717,4.173,4.1777,4.1793,4.159,4.159,4.159,0,4.1132,4.1201,4.1185,4.1241,4.1264,4.1228,4.1293,4.1312,4.1351,4.1369,4.1338,4.1436,4.1453,4.1544,4.1575,4.1594,4.1613,4.1576,4.1715,4.1729,4.1741,4.1785,4.1803,4.1594,4.1594,4.1593,4.1593,0,4.1273,4.1323,4.1371,4.1409,4.1438,4.1498,4.1493,4.1525,4.1512,4.1514,4.1589,4.1608,4.1654,4.1675,4.1663,4.1766,4.1749,4.1717,4.1662,4.1764,4.1805,4.1822,4.1601,4.1599,4.1598,4.1597,0,0,4.1429,4.1458,4.1477,4.1494,4.1521,4.156,4.1621,4.1664,4.1693,4.1722,4.1773,4.184,4.1812,4.1836,4.1826,4.1872,4.1974,4.1835,4.1836,4.1861,4.2091,4.2115,4.2135,4.1958,4.1961,4.1963,4.2089,0,4.1546,4.1648,4.1637,4.1735,4.1782,4.1749,4.1802,4.1826,4.1831,4.1873,4.1879,4.1927,4.1885,4.19,4.1943,4.1952,4.202,4.1943,4.2007,4.201,4.2001,4.2156,4.2181,4.2299,4.2105,4.2108,4.211,0,4.1695,4.1729,4.1832,4.1854,4.1873,4.1921,4.1961,4.2001,4.2029,4.2029,4.2058,4.2041,4.2104,4.2048,4.2136,4.2084,4.211,4.2119,4.2123,4.2129,4.2066,4.2167,4.2336,4.2354,4.2135,4.2133,4.2131,0,4.18,4.1872,4.1943,4.1959,4.1986,4.2021,4.2034,4.2058,4.2086,4.2122,4.214,4.2184,4.2208,4.2244,4.224,4.2199,4.233,4.2274,4.2334,4.2335,4.2363,4.2361,4.2539,4.238,4.2379,4.2379,4.2379,0,4.1932,4.1997,4.199,4.2034,4.2107,4.2094,4.2167,4.2177,4.2199,4.2246,4.2221,4.2266,4.2258,4.2304,4.2302,4.2376,4.2387,4.2391,4.239,4.2393,4.2393,4.241,4.2402,4.2384,4.2383,4.2382,4.2381,0,4.2061,4.2059,4.2135,4.2155,4.2162,4.2214,4.2232,4.2275,4.2279,4.2339,4.2352,4.2358,4.2411,4.2411,4.2472,4.247,4.2562,4.2551,4.2552,4.255,4.2611,4.2605,4.2806,4.2832,4.2655,4.2657,4.2658,0,4.2145,4.2194,4.222,4.2249,4.2264,4.2311,4.2339,4.233,4.2361,4.2398,4.2437,4.2487,4.2527,4.2613,4.2624,4.2672,4.2662,4.2729,4.2669,4.2672,4.2664,4.2661,4.2667,4.2741,4.2743,4.2745,4.2746,0,4.2295,4.2292,4.2333,4.2375,4.2409,4.2441,4.2471,4.2497,4.2492,4.2528,4.2581,4.2612,4.2674,4.2726,4.2771,4.2787,4.2767,4.2765,4.2782,4.2786,4.2785,4.2787,4.2585,4.276,4.2759,4.2758,4.2757,4.2756,4.2405,4.2447,4.2472,4.252,4.2541,4.257,4.2612,4.2621,4.2664,4.2713,4.2706,4.2766,4.2795,4.2854,4.2875,4.2923,4.29,4.2923,4.293,4.2936,4.2943,4.2777,4.2931,4.2931,4.293,4.293,4.293,0,4.2554,4.2569,4.2613,4.2655,4.2693,4.2669,4.2702,4.2736,4.2788,4.2816,4.2856,4.2919,4.2969,4.2985,4.3034,4.307,4.3062,4.3083,4.308,4.3085,4.296,4.2941,4.3089,4.3089,4.3089,4.3089,4.3089,4.3089,4.2636,4.2708,4.2709,4.2792,4.2807,4.2864,4.2885,4.2913,4.2935,4.3006,4.3047,4.3056,4.3081,4.3131,4.3177,4.3181,4.32,4.3226,4.3226,4.3109,4.3093,4.3078,4.306,4.323,4.323,4.3346,4.3347,4.3348]},{"header":{"parameterUnit":"m.s-1","parameterCategory":1,"la1":30.2991,"la2":30.254,"lo1":-89.0895,"lo2":-89.0444,"dy":0.0017,"dx":0.0017,"nx":28,"ny":28,"refTime":"2023-08-07T21:00:00:Z","depth":0,"parameterNumber":3,"parameterNumberName":"V-component_of_WINDS"},"data":[0,0,0,0,0,0,0,0,0,0,0,0,0,0,0,0,0,0,0,0,0,0,0,0,0,0,0,0,0,0,0,0,0,0,0,0,0,0,0,0,0,0,0,0,0,0,0,0,0,0,0,0,0,0,0,0,0,0,3.3354,3.3354,0,3.3394,3.3394,3.3395,3.3412,3.3412,3.3412,3.3412,3.3451,3.3452,3.3453,0,0,0,0,0,0,0,0,0,0,0,0,0,3.3288,3.3289,3.3353,3.3354,3.3354,3.3394,3.3394,3.3395,3.3412,3.3412,3.3412,3.3412,3.3451,3.3452,3.3453,0,0,0,0,0,0,0,0,0,0,0,0,0,3.3321,3.3289,3.3353,3.3368,3.337,3.3393,3.3394,3.3395,3.3412,3.3412,3.3412,3.3412,3.345,3.3452,3.3454,3.3465,0,0,3.3459,3.3459,0,0,0,0,0,0,0,0,3.3319,3.3323,3.3365,3.3367,3.3369,3.3398,3.3385,3.3418,3.3412,3.3396,3.3412,3.3412,3.3433,3.3436,3.3444,3.3467,3.3468,3.3459,3.346,3.346,3.3461,0,0,0,0,0,0,0,3.3317,3.3321,3.3369,3.3366,3.3368,3.3371,3.3376,3.3391,3.3415,3.3398,3.3399,3.3404,3.3434,3.3442,3.3445,3.3469,3.3459,3.346,3.3461,3.3462,3.3499,3.3499,0,0,0,0,0,0,3.3312,3.3319,3.3368,3.3371,3.3343,3.3372,3.3378,3.3389,3.3415,3.3418,3.3404,3.3404,3.344,3.3443,3.3446,3.3459,3.346,3.3462,3.3463,3.3499,3.3499,3.3499,0,0,0,0,0,0,3.3311,3.3316,3.3366,3.3345,3.3352,3.3374,3.3386,3.339,3.3398,3.3419,3.3423,3.3408,3.344,3.3444,3.3459,3.3461,3.3463,3.3464,3.3499,3.3499,3.3499,3.3486,0,0,0,0,0,0,3.3309,3.3316,3.3322,3.3345,3.3353,3.338,3.3386,3.339,3.3401,3.3402,3.3424,3.3428,3.344,3.3457,3.3461,3.3463,3.3465,3.3499,3.3499,3.3499,3.3486,3.3486,3.3485,0,0,0,0,0,3.3306,3.3317,3.3322,3.3328,3.3361,3.338,3.3385,3.3399,3.3401,3.3406,3.3419,3.3427,3.346,3.3458,3.3463,3.3466,3.3499,3.3499,3.3499,3.3487,3.3486,3.3485,0,0,0,0,0,0,3.3293,3.332,3.3326,3.3345,3.336,3.3383,3.3391,3.3398,3.3413,3.3413,3.343,3.3435,3.3448,3.3458,3.3456,3.3476,3.348,3.3481,3.3469,3.3468,3.3467,3.3464,3.3467,0,0,0,0,0,3.3293,3.3307,3.333,3.3344,3.3351,3.3369,3.3378,3.3388,3.3404,3.341,3.3425,3.3439,3.3452,3.3461,3.3475,3.3488,3.3491,3.3491,3.3491,3.349,3.349,3.3495,3.3495,3.3499,3.3499,3.3499,0,0,3.3291,3.3308,3.3316,3.3341,3.3354,3.3367,3.3375,3.3389,3.3398,3.3412,3.3427,3.3438,3.3455,3.3468,3.3475,3.3477,3.349,3.349,3.3489,3.349,3.3495,3.3494,3.3494,3.3499,3.3499,3.3499,0,0,3.3295,3.331,3.3322,3.3334,3.3353,3.3365,3.3367,3.3388,3.3396,3.3411,3.3421,3.3431,3.3455,3.3466,3.3474,3.3478,3.3485,3.3481,3.3477,3.3482,3.3481,3.3481,3.348,3.348,3.3482,3.3482,3.3482,0,3.3291,3.3312,3.3327,3.334,3.3349,3.3362,3.3373,3.3384,3.3406,3.3411,3.3414,3.3441,3.3454,3.3468,3.3469,3.3476,3.3478,3.3479,3.348,3.348,3.348,3.348,3.3479,3.3481,3.3481,3.3481,3.3482,0,3.3305,3.3318,3.3326,3.3346,3.3356,3.3368,3.3383,3.3391,3.3399,3.3409,3.3422,3.3437,3.3453,3.3457,3.3465,3.3472,3.3472,3.3477,3.3482,3.3479,3.3478,3.3479,3.348,3.3481,3.3481,3.3481,0,0,3.3304,3.333,3.3332,3.334,3.336,3.337,3.3381,3.3396,3.3402,3.3415,3.3423,3.3441,3.3445,3.3454,3.3463,3.3467,3.3466,3.3471,3.3472,3.3468,3.3471,3.3466,3.3466,3.347,3.347,3.347,3.3469,0,3.3309,3.333,3.3342,3.3357,3.3368,3.3379,3.3388,3.34,3.3409,3.3419,3.3428,3.344,3.3445,3.345,3.3455,3.3465,3.3466,3.3465,3.3476,3.3476,3.3471,3.3466,3.3462,3.346,3.3469,3.3469,3.3469,0,3.3319,3.3332,3.3348,3.3363,3.3368,3.3376,3.3389,3.3399,3.3411,3.3418,3.3426,3.3435,3.3444,3.3447,3.3459,3.3458,3.3462,3.3468,3.3468,3.3469,3.3472,3.3466,3.346,3.3459,3.3469,3.3469,3.3469,0,3.3314,3.3335,3.3347,3.3353,3.3372,3.3377,3.3385,3.3398,3.3405,3.3416,3.342,3.3431,3.3438,3.3445,3.3456,3.3457,3.3465,3.347,3.3469,3.3469,3.3471,3.347,3.3464,3.3475,3.3475,3.3475,3.3475,0,3.3319,3.3328,3.3344,3.3351,3.336,3.3373,3.3381,3.339,3.34,3.3407,3.3417,3.3424,3.3437,3.3445,3.3453,3.346,3.3463,3.3467,3.3469,3.3465,3.3465,3.3469,3.3468,3.3475,3.3475,3.3475,3.3475,0,3.3315,3.3327,3.334,3.3356,3.336,3.3365,3.3378,3.3384,3.3393,3.3402,3.3405,3.3418,3.3427,3.3438,3.345,3.3455,3.3461,3.3465,3.3457,3.3458,3.3456,3.3455,3.3452,3.3451,3.3463,3.3463,3.3463,0,3.3317,3.3324,3.334,3.3345,3.3353,3.3362,3.3368,3.338,3.3386,3.3399,3.3403,3.3412,3.3421,3.3434,3.3444,3.3453,3.3456,3.3453,3.3457,3.3453,3.3454,3.3453,3.3452,3.3453,3.3452,3.3452,3.3452,0,3.3318,3.3323,3.3333,3.3343,3.335,3.3359,3.3368,3.3372,3.3385,3.3391,3.34,3.3406,3.3418,3.3426,3.3436,3.3443,3.3449,3.3451,3.3451,3.3447,3.3442,3.3443,3.3453,3.3451,3.3451,3.3451,3.3451,3.3451,3.3317,3.3322,3.3333,3.3342,3.335,3.3357,3.3363,3.3371,3.3379,3.3389,3.3395,3.3403,3.3412,3.3426,3.3432,3.3437,3.344,3.344,3.344,3.344,3.3438,3.3441,3.3439,3.3439,3.3439,3.3439,3.3439,0,3.3317,3.3323,3.3332,3.3343,3.335,3.3355,3.3364,3.3369,3.3376,3.3384,3.3391,3.34,3.3407,3.3417,3.3425,3.3427,3.3429,3.3428,3.3428,3.3429,3.3436,3.3435,3.3426,3.3426,3.3426,3.3426,3.3426,3.3426,3.3318,3.3326,3.3331,3.3342,3.3348,3.3356,3.3361,3.3367,3.3373,3.3382,3.3388,3.3394,3.3402,3.341,3.3416,3.3418,3.342,3.3418,3.3421,3.3427,3.3429,3.343,3.3428,3.3418,3.3418,3.3413,3.3413,3.3413]}]]